timestamp,surface_pressure_avg,surface_temp_avg,battery_voltage,lat,long
2023-11-16 00:09:01+00:00,331.4863,6.31,12.33,47.84626,-54.09684
2023-11-16 00:19:00+00:00,339.3146,6.5,12.33,47.84626,-54.09684
2023-11-16 00:29:00+00:00,343.6628,6.5,12.33,47.84626,-54.09684
2023-11-16 00:39:00+00:00,338.8195,6.29,12.33,47.84626,-54.09684
2023-11-16 00:49:00+00:00,340.2313,6.0,12.33,47.84626,-54.09684
2023-11-16 00:59:00+00:00,351.4412,6.1,12.33,47.84626,-54.09684
2023-11-16 01:09:00+00:00,350.6396,6.22,12.33,47.84626,-54.09684
2023-11-16 01:19:00+00:00,339.9346,6.03,12.33,47.84626,-54.09684
2023-11-16 01:29:00+00:00,343.0196,6.08,12.33,47.84626,-54.09684
2023-11-16 01:39:00+00:00,347.1797,6.2,12.33,47.84626,-54.09684
2023-11-16 01:49:00+00:00,339.2313,6.3,12.33,47.84626,-54.09684
2023-11-16 01:59:00+00:00,334.0029,6.1,12.33,47.84626,-54.09684
2023-11-16 02:09:00+00:00,339.6995,6.01,12.33,47.84626,-54.09684
2023-11-16 02:19:00+00:00,336.9197,6.0,12.33,47.84626,-54.09684
2023-11-16 02:29:00+00:00,325.4496,6.0,12.33,47.84626,-54.09684
2023-11-16 02:39:00+00:00,324.6964,6.0,12.33,47.84626,-54.09684
2023-11-16 02:49:00+00:00,326.7847,5.99,12.33,47.84626,-54.09684
2023-11-16 02:59:00+00:00,316.2813,5.93,12.33,47.84626,-54.09684
2023-11-16 03:09:00+00:00,310.3713,5.9,12.33,47.84626,-54.09684
2023-11-16 03:19:00+00:00,310.6798,5.9,12.33,47.84626,-54.09684
2023-11-16 03:29:00+00:00,308.098,5.9,12.33,47.84626,-54.09684
2023-11-16 03:39:00+00:00,296.148,5.9,12.33,47.84626,-54.09684
2023-11-16 03:49:00+00:00,291.0698,5.9,12.33,47.84626,-54.09684
2023-11-16 03:59:00+00:00,284.653,5.9,12.33,47.84626,-54.09684
2023-11-16 04:09:00+00:00,275.3847,5.89,12.33,47.84626,-54.09684
2023-11-16 04:19:00+00:00,266.9264,5.88,12.25,47.84626,-54.09684
2023-11-16 04:29:00+00:00,263.8248,5.9,12.25,47.84626,-54.09684
2023-11-16 04:39:00+00:00,256.328,5.9,12.25,47.84626,-54.09684
2023-11-16 04:49:00+00:00,244.858,5.9,12.25,47.84626,-54.09684
2023-11-16 04:59:00+00:00,239.6564,5.8,12.25,47.84626,-54.09684
2023-11-16 05:09:00+00:00,237.8897,5.84,12.25,47.84626,-54.09684
2023-11-16 05:19:00+00:00,224.0981,5.95,12.25,47.84626,-54.09684
2023-11-16 05:29:00+00:00,210.8398,5.9,12.25,47.84626,-54.09684
2023-11-16 05:39:00+00:00,213.3399,5.98,12.25,47.84626,-54.09684
2023-11-16 05:49:00+00:00,211.1881,6.1,12.25,47.84626,-54.09684
2023-11-16 05:59:00+00:00,200.1682,6.2,12.25,47.84626,-54.09684
2023-11-16 06:09:00+00:00,196.6514,6.2,12.25,47.84626,-54.09684
2023-11-16 06:19:00+00:00,198.3264,6.25,12.25,47.84626,-54.09684
2023-11-16 06:29:00+00:00,190.2382,6.29,12.25,47.84626,-54.09684
2023-11-16 06:39:00+00:00,183.5048,6.1,12.25,47.84626,-54.09684
2023-11-16 06:49:00+00:00,188.2298,6.1,12.25,47.84626,-54.09684
2023-11-16 06:59:00+00:00,188.9098,6.1,12.25,47.84626,-54.09684
2023-11-16 07:09:00+00:00,185.0064,6.2,12.25,47.84626,-54.09684
2023-11-16 07:19:00+00:00,190.2531,6.29,12.25,47.84626,-54.09684
2023-11-16 07:29:00+00:00,198.0531,6.2,12.25,47.84626,-54.09684
2023-11-16 07:39:00+00:00,196.7781,6.1,12.25,47.84626,-54.09684
2023-11-16 07:49:00+00:00,197.3848,6.0,12.25,47.84626,-54.09684
2023-11-16 07:59:00+00:00,204.7681,5.9,12.25,47.84626,-54.09684
2023-11-16 08:09:00+00:00,210.5881,5.9,12.25,47.84626,-54.09684
2023-11-16 08:19:00+00:00,215.0081,5.8,12.17,47.84626,-54.09684
2023-11-16 08:29:00+00:00,223.2814,5.8,12.17,47.84626,-54.09684
2023-11-16 08:39:00+00:00,230.4431,5.8,12.17,47.84626,-54.09684
2023-11-16 08:49:00+00:00,235.5881,5.8,12.17,47.84626,-54.09684
2023-11-16 08:59:00+00:00,243.3848,5.86,12.17,47.84626,-54.09684
2023-11-16 09:09:00+00:00,250.9614,5.8,12.17,47.84626,-54.09684
2023-11-16 09:19:00+00:00,254.7398,5.8,12.25,47.84626,-54.09684
2023-11-16 09:29:00+00:00,257.5381,5.8,12.25,47.84626,-54.09684
2023-11-16 09:39:00+00:00,263.1714,5.76,12.25,47.84626,-54.09684
2023-11-16 09:49:00+00:00,266.138,5.73,12.25,47.84626,-54.09684
2023-11-16 09:59:00+00:00,268.4931,5.77,12.25,47.84626,-54.09684
2023-11-16 10:09:00+00:00,275.6431,5.8,12.25,47.84626,-54.09684
2023-11-16 10:19:00+00:00,284.358,5.7,12.17,47.84626,-54.09684
2023-11-16 10:29:00+00:00,286.1746,5.6,12.17,47.84626,-54.09684
2023-11-16 10:39:00+00:00,289.6397,5.59,12.17,47.84626,-54.09684
2023-11-16 10:49:00+00:00,299.0646,5.95,12.17,47.84626,-54.09684
2023-11-16 10:59:00+00:00,306.8279,6.17,12.17,47.84626,-54.09684
2023-11-16 11:09:00+00:00,308.9214,6.26,12.17,47.84626,-54.09684
2023-11-16 11:19:00+00:00,316.1664,6.32,12.25,47.84626,-54.09684
2023-11-16 11:29:00+00:00,325.6647,6.31,12.25,47.84626,-54.09684
2023-11-16 11:39:00+00:00,331.2512,6.39,12.25,47.84626,-54.09684
2023-11-16 11:49:00+00:00,335.6929,6.57,12.25,47.84626,-54.09684
2023-11-16 11:59:00+00:00,344.7663,6.6,12.25,47.84626,-54.09684
2023-11-16 12:09:00+00:00,353.5896,6.6,12.25,47.84626,-54.09684
2023-11-16 12:19:00+00:00,358.1428,6.6,12.97,47.84626,-54.09684
2023-11-16 12:29:00+00:00,361.6346,6.6,12.97,47.84626,-54.09684
2023-11-16 12:39:00+00:00,365.7213,6.58,12.97,47.84626,-54.09684
2023-11-16 12:49:00+00:00,371.0029,6.6,12.97,47.84626,-54.09684
2023-11-16 12:59:00+00:00,373.0312,6.6,12.97,47.84626,-54.09684
2023-11-16 13:09:00+00:00,373.8746,6.63,12.97,47.84626,-54.09684
2023-11-16 13:19:00+00:00,374.6364,6.67,13.13,47.84626,-54.09684
2023-11-16 13:29:00+00:00,375.1096,6.6,13.13,47.84626,-54.09684
2023-11-16 13:39:00+00:00,377.7263,6.6,13.13,47.84626,-54.09684
2023-11-16 13:49:00+00:00,376.0594,6.5,13.13,47.84626,-54.09684
2023-11-16 13:59:00+00:00,373.8781,6.5,13.13,47.84626,-54.09684
2023-11-16 14:09:00+00:00,378.5279,6.5,13.13,47.84626,-54.09684
2023-11-16 14:19:00+00:00,379.8046,6.5,13.6,47.84626,-54.09684
2023-11-16 14:29:00+00:00,373.9346,6.51,13.6,47.84626,-54.09684
2023-11-16 14:39:00+00:00,369.9896,6.55,13.6,47.84626,-54.09684
2023-11-16 14:49:00+00:00,370.7064,6.59,13.6,47.84626,-54.09684
2023-11-16 14:59:00+00:00,365.9546,6.61,13.6,47.84626,-54.09684
2023-11-16 15:09:00+00:00,358.9329,6.64,13.6,47.84626,-54.09684
2023-11-16 15:19:00+00:00,354.1013,6.6,14.0,47.84626,-54.09684
2023-11-16 15:29:00+00:00,348.5262,6.6,14.0,47.84626,-54.09684
2023-11-16 15:39:00+00:00,338.7729,6.66,14.0,47.84626,-54.09684
2023-11-16 15:49:00+00:00,332.1346,6.7,14.0,47.84626,-54.09684
2023-11-16 15:59:00+00:00,329.3096,6.7,14.0,47.84626,-54.09684
2023-11-16 16:09:00+00:00,323.153,6.7,14.0,47.84626,-54.09684
2023-11-16 16:19:00+00:00,309.2113,6.7,13.53,47.84626,-54.09684
2023-11-16 16:29:00+00:00,301.27299999999997,6.63,13.53,47.84626,-54.09684
2023-11-16 16:39:00+00:00,298.598,6.6,13.53,47.84626,-54.09684
2023-11-16 16:49:00+00:00,287.883,6.6,13.53,47.84626,-54.09684
2023-11-16 16:59:00+00:00,276.7664,6.6,13.53,47.84626,-54.09684
2023-11-16 17:09:00+00:00,273.0448,6.6,13.53,47.84626,-54.09684
2023-11-16 17:19:00+00:00,265.9547,6.6,12.89,47.84626,-54.09684
2023-11-16 17:29:00+00:00,249.5147,6.6,12.89,47.84626,-54.09684
2023-11-16 17:39:00+00:00,239.9598,6.6,12.89,47.84626,-54.09684
2023-11-16 17:49:00+00:00,238.2631,6.66,12.89,47.84626,-54.09684
2023-11-16 17:59:00+00:00,228.5064,6.69,12.89,47.84626,-54.09684
2023-11-16 18:09:00+00:00,215.3548,6.7,12.89,47.84626,-54.09684
2023-11-16 18:19:01+00:00,211.643,6.7,12.57,47.84626,-54.09684
2023-11-16 18:29:01+00:00,208.2531,6.7,12.57,47.84626,-54.09684
2023-11-16 18:39:01+00:00,198.0665,6.7,12.57,47.84626,-54.09684
2023-11-16 18:49:01+00:00,192.2731,6.7,12.57,47.84626,-54.09684
2023-11-16 18:59:01+00:00,196.6098,6.7,12.57,47.84626,-54.09684
2023-11-16 19:09:01+00:00,195.4348,6.74,12.57,47.84626,-54.09684
2023-11-16 19:19:00+00:00,185.1815,6.76,12.49,47.84626,-54.09684
2023-11-16 19:29:00+00:00,185.2581,6.76,12.49,47.84626,-54.09684
2023-11-16 19:39:00+00:00,194.2064,6.76,12.49,47.84626,-54.09684
2023-11-16 19:49:00+00:00,191.6348,6.78,12.49,47.84626,-54.09684
2023-11-16 19:59:00+00:00,188.7165,6.8,12.49,47.84626,-54.09684
2023-11-16 20:09:00+00:00,199.2415,6.8,12.49,47.84626,-54.09684
2023-11-16 20:19:00+00:00,206.4366,6.8,12.41,47.84626,-54.09684
2023-11-16 20:29:00+00:00,204.2365,6.84,12.41,47.84626,-54.09684
2023-11-16 20:39:00+00:00,207.7864,6.88,12.41,47.84626,-54.09684
2023-11-16 20:49:00+00:00,215.7714,6.83,12.41,47.84626,-54.09684
2023-11-16 20:59:00+00:00,216.8698,6.84,12.41,47.84626,-54.09684
2023-11-16 21:09:00+00:00,218.0548,6.81,12.41,47.84626,-54.09684
2023-11-16 21:19:01+00:00,223.8598,6.8,12.41,47.84626,-54.09684
2023-11-16 21:29:01+00:00,228.9714,6.8,12.41,47.84626,-54.09684
2023-11-16 21:39:01+00:00,232.5598,6.8,12.41,47.84626,-54.09684
2023-11-16 21:49:01+00:00,238.1031,6.87,12.41,47.84626,-54.09684
2023-11-16 21:59:01+00:00,244.8564,6.9,12.41,47.84626,-54.09684
2023-11-16 22:09:01+00:00,249.9814,6.96,12.41,47.84626,-54.09684
2023-11-16 22:19:00+00:00,254.3347,7.0,12.41,47.84626,-54.09684
2023-11-16 22:29:00+00:00,257.4797,7.0,12.41,47.84626,-54.09684
2023-11-16 22:39:00+00:00,260.7714,7.0,12.41,47.84626,-54.09684
2023-11-16 22:49:00+00:00,262.5198,7.01,12.41,47.84626,-54.09684
2023-11-16 22:59:00+00:00,265.8014,7.0,12.41,47.84626,-54.09684
2023-11-16 23:09:00+00:00,268.8698,7.0,12.41,47.84626,-54.09684
2023-11-16 23:19:00+00:00,271.7681,7.0,12.41,47.84626,-54.09684
2023-11-16 23:29:00+00:00,276.2897,7.0,12.41,47.84626,-54.09684
2023-11-16 23:39:00+00:00,284.2164,7.0,12.41,47.84626,-54.09684
2023-11-16 23:49:00+00:00,290.4814,7.01,12.41,47.84626,-54.09684
2023-11-16 23:59:00+00:00,295.4264,7.02,12.41,47.84626,-54.09684
